George, South Africa

11:26 AM SAST on January 22, 2018 (GMT +0200)
George

Weather History for FAGG - September, 2014

Change the Weather History Date:

Saturday, September 20, 2014

  Actual Average Record
Temperature  
Mean Temperature 50 °F -  
Max Temperature 61 °F 66 °F 82 °F (1998)
Min Temperature 39 °F 49 °F 39 °F (2014)
Degree Days  
Heating Degree Days 15    
Moisture  
Dew Point 42 °F    
Average Humidity 70    
Maximum Humidity 100    
Minimum Humidity 38    
Precipitation  
Precipitation 0.00 in - - ()
Sea Level Pressure  
Sea Level Pressure 30.34 in    
Wind  
Wind Speed 4 mph ()    
Max Wind Speed 9 mph    
Max Gust Speed -    
Visibility 13.0 miles    
Events      
Averages and records for this station are not official NWS values.
T = Trace of Precipitation, MM = Missing Value Source: Averaged Metar Reports

Daily Weather History Graph

Daily Weather History Graph

Search for Another Location

Airport or City:

Trip Planner

Search our weather history database for the weather conditions in past years. The results will help you decide how hot, cold, wet, or windy it might be!

Date:

Astronomy

Sep. 20, 2014 Rise Set
Actual Time 6:23 AM SAST 6:25 PM SAST
Civil Twilight 5:58 AM SAST 6:50 PM SAST
Nautical Twilight 5:29 AM SAST 7:19 PM SAST
Astronomical Twilight 4:59 AM SAST 7:48 PM SAST
Moon 3:59 AM SAST (9/20) 3:12 PM SAST (9/20)
Length of Visible Light 12h 52m
Length of Day
12h 02m
Waning Crescent, 13% of the Moon is Illuminated
Sep 20
Waning Crescent
Sep 24
New
Oct 1
First Quarter
Oct 8
Full
Oct 15
Last Quarter

Hourly Weather History & Observations

Time (SAST) Temp. Windchill Dew Point Humidity Pressure Visibility Wind Dir Wind Speed Gust Speed Precip Events Conditions
12:00 AM 44.6 °F 43.1 °F 42.8 °F 93% 30.39 in - North 3.5 mph - N/A   Clear
1:00 AM 44.6 °F 42.2 °F 41.0 °F 87% 30.39 in - NNW 4.6 mph - N/A   Clear
2:00 AM 43 °F - 40 °F 84% 30.42 in 19 mi 2.3 mph - -  
2:00 AM 42.8 °F 41.1 °F 39.2 °F 87% 30.39 in - North 3.5 mph - N/A   Clear
3:00 AM 42.8 °F 39.3 °F 39.2 °F 87% 30.36 in - NW 5.8 mph - N/A   Clear
4:00 AM 42.8 °F 40.1 °F 37.4 °F 81% 30.36 in - NNW 4.6 mph - N/A   Clear
5:00 AM 42 °F - 36 °F 72% 30.37 in 12 mi NNE 5.8 mph - -  
5:00 AM 42.8 °F 39.3 °F 35.6 °F 76% 30.36 in - NNE 5.8 mph - N/A   Clear
6:00 AM 41.0 °F 38.0 °F 35.6 °F 81% 30.36 in - NNE 4.6 mph - N/A   Clear
7:00 AM 42.8 °F - 35.6 °F 76% 30.36 in - North 2.3 mph - N/A   Clear
8:00 AM 50 °F - 43 °F 70% 30.38 in 12 mi North 2.3 mph - -   Clear
8:00 AM 50.0 °F - 42.8 °F 76% 30.36 in - Variable 2.3 mph - N/A   Clear
9:00 AM 57.2 °F - 41.0 °F 55% 30.36 in - Variable 2.3 mph - N/A   Clear
10:00 AM 57.2 °F - 37.4 °F 48% 30.36 in - Variable 3.5 mph - N/A   Clear
11:00 AM 59 °F - 42 °F 42% 30.35 in 12 mi SSE 6.9 mph - -   Clear
11:00 AM 59.0 °F - 42.8 °F 55% 30.33 in - SSE 6.9 mph - N/A   Clear
12:00 PM 60.8 °F - 42.8 °F 52% 30.33 in - South 8.1 mph - N/A   Clear
1:00 PM 59.0 °F - 41.0 °F 51% 30.30 in - SSE 9.2 mph - N/A   Clear
2:00 PM 60 °F - 41 °F 38% 30.32 in 12 mi South 8.1 mph - -   Clear
2:00 PM 59.0 °F - 41.0 °F 51% 30.30 in - South 8.1 mph - N/A   Clear
3:00 PM 60.8 °F - 42.8 °F 52% 30.27 in - South 9.2 mph - N/A   Clear
4:00 PM 59.0 °F - 42.8 °F 55% 30.27 in - North - - N/A   Clear
5:00 PM 58 °F - 43 °F 47% 30.28 in 12 mi Calm Calm - -  
5:00 PM 59.0 °F - 42.8 °F 55% 30.27 in - North - - N/A   Clear
6:00 PM 55.4 °F - 44.6 °F 67% 30.27 in - SE 6.9 mph - N/A   Clear
7:00 PM 53.6 °F - 46.4 °F 77% 30.30 in - SE 3.5 mph - N/A   Clear
8:00 PM 51 °F - 47 °F 82% 30.32 in 12 mi NNE 3.5 mph - -  
8:00 PM 50.0 °F - 46.4 °F 87% 30.30 in - NNE 3.5 mph - N/A   Clear
9:00 PM 48.2 °F - 46.4 °F 93% 30.33 in - WNW 2.3 mph - N/A   Clear
10:00 PM 46.4 °F 45.2 °F 46.4 °F 100% 30.33 in - NNW 3.5 mph - N/A   Clear
11:00 PM 46.4 °F 45.2 °F 44.6 °F 93% 30.33 in - North 3.5 mph - N/A   Clear